Location: Newark
(48.6461°N, 4.3644°W)
Time: 23:06:33
(UTC+00:00)

A-11 Canister half - Pass Details

Date: 02 February 2020
Orbit: 1517 x 1683 km, 47.2° (Epoch: 20 February)

Event Time Altitude Azimuth Distance (km) Brightness Sun altitude
Exits shadow 06:07:55 12° 241° (WSW) 3,501 10.4 -16.4°
Maximum altitude 06:08:35 12° 236° (SW) 3,493 10.4 -16.3°
Drops below altitude 10° 06:11:53 10° 215° (SW) 3,685 10.7 -15.8°
Sets 06:17:29 0° 188° (S) 4,685 11.6 -14.9°
